Regional Weather Roundup
Issued by NWS Little Rock, AR

Home | Current Version | Previous Version | Graphics & Text | Print | Product List | Glossary On
Versions: 1 2 3 4 5 6 7 8 9 10 11 12 13 14 15 16 17 18 19 20 21 22 23 24 25 26 27 28 29 30 31 32 33 34 35 36 37 38 39 40 41 42 43 44 45 46 47 48 49 50
245
ASUS44 KLZK 161805
RWRLZK

WEATHER ROUNDUP FOR ARKANSAS
NATIONAL WEATHER SERVICE LITTLE ROCK AR
1200 PM CST SAT DEC 16 2017

NOTE: "FAIR" INDICATES FEW OR NO CLOUDS BELOW 12,000 FEET WITH NO
SIGNIFICANT WEATHER AND/OR OBSTRUCTIONS TO VISIBILITY.

ARZ001-003-010-029-161900-
NORTHWEST ARKANSAS

CITY           SKY/WX    TMP DP  RH WIND       PRES   REMARKS
FAYETTEVILLE   SUNNY     54  27  35 SW15      30.07F
6HR MIN TEMP:  37; 6HR MAX TEMP:  54;

FORT SMITH     SUNNY     52  33  48 CALM      30.11F
6HR MIN TEMP:  26; 6HR MAX TEMP:  52;

HARRISON       CLOUDY    56  24  29 SW9G16    30.06F
6HR MIN TEMP:  31; 6HR MAX TEMP:  56;

BENTONVILLE    CLOUDY    53  26  35 SW16G22   30.07F
6HR MIN TEMP:  34; 6HR MAX TEMP:  53;

ROGERS         CLOUDY    55  27  34 SW12      30.06F
6HR MIN TEMP:  36; 6HR MAX TEMP:  55;

SILOAM SPGS    SUNNY     54  27  35 SW16G22   30.06F
6HR MIN TEMP:  34; 6HR MAX TEMP:  54;

HIGHFILL       CLOUDY    53  26  35 SW17      30.05F
6HR MIN TEMP:  36; 6HR MAX TEMP:  54;

SPRINGDALE     SUNNY     52  25  35 SW15G23   30.08F
$$

ARZ004-005-016-161900-
NORTH CENTRAL ARKANSAS

CITY           SKY/WX    TMP DP  RH WIND       PRES   REMARKS
BATESVILLE     SUNNY     53  29  39 SW9       30.15F
6HR MIN TEMP:  32; 6HR MAX TEMP:  53;

FLIPPIN        CLOUDY    53  26  35 S9G18     30.09F
6HR MIN TEMP:  29; 6HR MAX TEMP:  53;

MTN HOME       CLOUDY    52  26  36 SW9       30.08F
6HR MIN TEMP:  33; 6HR MAX TEMP:  52;

$$

ARZ040-041-161900-
WEST CENTRAL ARKANSAS

CITY           SKY/WX    TMP DP  RH WIND       PRES   REMARKS
MENA           SUNNY     55  28  35 SW5       30.13F
MOUNT IDA      LGT RAIN  54  27  35 VRB7      30.13F
6HR MIN TEMP:  24; 6HR MAX TEMP:  54; 6HR PCP: TRACE;

$$

ARZ009-017-025-026-028-161900-
NORTHEAST ARKANSAS

CITY           SKY/WX    TMP DP  RH WIND       PRES   REMARKS
CORNING        FAIR      50  34  53 SW18      30.14F
JONESBORO      SUNNY     51  34  52 SW15G24   30.16F
6HR MIN TEMP:  30; 6HR MAX TEMP:  51;

NEWPORT        SUNNY     51  31  46 SW20      30.16F
6HR MIN TEMP:  30; 6HR MAX TEMP:  51;

WALNUT RIDGE   SUNNY     51  31  46 SW18      30.13F
6HR MIN TEMP:  28; 6HR MAX TEMP:  52;

BLYTHEVILLE    CLOUDY    52  33  48 SW20G29   30.19F
6HR MIN TEMP:  32; 6HR MAX TEMP:  52;

$$

ARZ022-023-033-042-044-161900-
CENTRAL ARKANSAS

CITY           SKY/WX    TMP DP  RH WIND       PRES   REMARKS
LITTLE ROCK    PTSUNNY   54  28  36 SW13      30.18F
6HR MIN TEMP:  27; 6HR MAX TEMP:  55;

N LITTLE ROCK    N/A     52  31  44 S8        30.20F
6HR MIN TEMP:  32; 6HR MAX TEMP:  52;

JACKSONVILLE   SUNNY     52  29  40 S9        30.16F
6HR MIN TEMP:  29; 6HR MAX TEMP:  53;

SEARCY         SUNNY     53  29  39 SW10      30.17F
6HR MIN TEMP:  24; 6HR MAX TEMP:  53;

HOT SPRINGS    CLOUDY    55  29  36 W12       30.17F
6HR MIN TEMP:  27; 6HR MAX TEMP:  55;

RUSSELLVILLE   SUNNY     53  27  36 S8        30.14F
6HR MIN TEMP:  23; 6HR MAX TEMP:  53;

CLINTON        FAIR      50  28  43 SW9       30.15F
$$

ARZ036-161900-
EAST ARKANSAS

CITY           SKY/WX    TMP DP  RH WIND       PRES   REMARKS
WEST MEMPHIS   SUNNY     51  34  52 S12       30.19F
6HR MIN TEMP:  31; 6HR MAX TEMP:  51;

$$

ARZ050-053-066-070-073-161900-
SOUTHWEST ARKANSAS

CITY           SKY/WX    TMP DP  RH WIND       PRES   REMARKS
ARKADELPHIA    FAIR      53  32  44 S8        30.20F
6HR MIN TEMP:  21; 6HR MAX TEMP:  53;

CAMDEN         SUNNY     57  28  33 S8        30.20F
TEXARKANA      CLOUDY    55  30  38 SW9       30.17F
6HR MIN TEMP:  32; 6HR MAX TEMP:  55;

EL DORADO      SUNNY     54  35  48 S8        30.21F
6HR MIN TEMP:  25; 6HR MAX TEMP:  54;

DE QUEEN       CLOUDY    53  32  44 SW7       30.15F
6HR MIN TEMP:  22; 6HR MAX TEMP:  53;

$$

ARZ056-057-069-161900-
SOUTHEAST ARKANSAS

CITY           SKY/WX    TMP DP  RH WIND       PRES   REMARKS
PINE BLUFF     SUNNY     54  30  40 SW12      30.20F
6HR MIN TEMP:  30; 6HR MAX TEMP:  54;

STUTTGART      SUNNY     54  30  40 S12       30.20F
6HR MIN TEMP:  32; 6HR MAX TEMP:  54;

MONTICELLO     SUNNY     55  33  43 S8        30.21F
6HR MIN TEMP:  37; 6HR MAX TEMP:  55;


$$






USA.gov is the U.S. government's official web portal to all federal, state and local government web resources and services.